Temperature
13 12 12 12 12 12 12 12 12 12 12 12 12 12 12 12 12 12 12 12 12 12 12 12 11 11 11 11 11 11 11 11 11 11 11 11 11 11 11 11 11 11 11
12 12 12 12 12 12 12 12 12 12 12 12 12 12 12 12 12 12 12 12 12 12 11 11 11 11 11 11 11 11 11 11 11 11 11 11 11 11 10 11 11 11 11
11 11 11 11 11 11 11 11 11 11 11 11 11 11 12 12 12 12 12 11 11 11 11 11 11 11 10 10 10 10 10 10 10 10 10 10 10 10 10 10 10 10 11
11 11 11 11 11 11 11 11 11 11 11 11 11 11 11 11 11 11 11 11 11 11 11 11 10 10 10 10 10 10 10 10 10 10 10 10 10 10 10 10 10 10 10
10 10 10 10 10 10 10 10 10 10 10 10 10 10 10 11 10 10 10 10 10 10 10 10 10 9 9 9 9 9 9 9 9 9 9 9 9 9 9 9 9 9 9
10 10 10 10 10 10 10 10 10 9 9 9 9 10 10 10 10 10 10 10 9 9 9 9 9 9 9 9 8 8 8 8 8 8 8 8 8 8 8 8 8 9 9
9 9 9 9 9 9 9 9 9 9 9 9 9 9 9 9 9 9 9 9 9 9 8 8 8 8 8 8 8 8 8 8 7 7 8 8 8 8 8 8 8 8 8
9 9 9 9 9 9 8 8 8 8 8 8 7 7 7 8 8 8 8 8 8 8 8 8 8 8 7 7 7 7 7 7 7 7 7 7 7 7 7 7 7 7 8
8 8 8 8 8 8 8 8 8 8 7 7 7 6 6 6 6 7 8 8 7 7 7 7 7 7 7 7 7 7 7 6 6 6 6 6 6 7 7 7 7 7 7
8 8 8 8 8 7 7 7 7 7 7 6 6 6 6 5 5 5 6 6 7 7 7 7 7 7 6 6 6 6 6 6 6 6 6 6 6 6 6 6 6 7 7
8 8 7 7 7 7 7 7 7 7 6 6 6 6 5 5 5 4 4 5 6 6 6 6 6 6 6 6 5 5 5 5 5 5 5 5 5 6 6 6 6 6 6
7 7 7 7 7 7 7 6 6 6 6 6 5 5 5 4 4 4 3 4 4 5 5 6 6 5 5 5 5 5 5 5 5 5 5 5 5 5 5 5 5 6 6
7 7 7 6 6 6 6 6 6 6 6 5 5 5 5 4 4 4 3 3 3 4 5 5 5 5 5 4 4 4 4 4 4 4 4 4 4 4 4 5 5 5 5
7 6 6 6 6 6 6 6 6 5 5 5 5 5 5 4 4 4 3 3 2 3 3 4 4 4 4 4 4 4 4 4 4 4 4 4 4 4 4 4 4 5 5
6 6 6 6 6 6 5 5 5 5 5 5 5 5 4 4 4 4 3 3 2 2 2 3 3 4 3 3 3 3 3 3 3 3 3 3 4 4 4 4 4 4 4
6 6 6 5 5 5 5 5 5 5 5 5 4 4 4 4 4 4 3 3 2 1 1 2 2 3 3 3 3 3 3 3 3 3 3 3 3 3 3 3 3 4 4
6 5 5 5 5 5 5 5 5 4 4 4 4 4 4 4 3 3 3 2 2 1 1 1 2 2 2 2 2 2 2 2 3 3 3 3 3 3 3 3 3 4 4
5 5 5 5 5 5 4 4 4 4 4 4 4 4 3 3 3 3 2 2 2 1 1 1 1 1 2 2 2 2 2 2 2 2 2 3 3 3 3 3 3 3 3
5 5 5 5 4 4 4 4 4 4 4 4 3 3 3 3 3 2 2 2 1 1 1 0 1 1 1 1 1 1 2 2 2 2 2 2 2 3 3 2 3 3 3
4 4 4 4 4 4 4 4 3 3 3 3 3 3 3 2 2 2 1 1 1 1 1 0 0 0 1 1 1 1 1 1 2 2 2 2 2 2 2 2 2 3 3
4 4 4 4 4 3 3 3 3 3 3 3 3 3 2 2 2 1 1 1 1 0 0 -0 -0 0 0 0 0 0 0 1 1 1 1 1 1 2 2 2 2 2 2
4 4 4 4 3 3 3 3 3 3 2 2 2 2 2 2 1 1 1 1 0 0 -0 -0 -0 -0 -0 -0 -0 -0 -0 -0 0 1 1 1 1 1 2 1 2 2 2
4 3 3 3 3 3 3 2 2 2 2 2 2 2 1 1 1 1 1 1 0 0 -0 -0 -1 -1 -1 -1 -1 -1 -0 -0 -0 -0 0 0 1 1 1 1 1 1 1
3 3 3 3 3 3 2 2 2 2 2 2 2 1 1 1 1 0 0 0 0 0 -0 -0 -1 -1 -1 -1 -1 -1 -1 -0 -0 0 -0 -0 0 1 1 1 1 1 1
3 3 3 3 2 2 2 2 2 2 2 2 1 1 0 0 0 -0 -0 -0 -0 -0 -0 -0 -1 -1 -1 -1 -1 -1 -1 -1 -0 -0 -0 -0 -0 -0 0 0 1 1 1
2 2 2 2 2 2 2 2 1 1 1 1 1 1 0 -0 -0 -1 -1 -1 -1 -1 -0 -0 -0 -0 -0 -1 -1 -1 -1 -1 -1 -1 -1 -1 -1 -1 -1 -0 -0 0 0
Wind_Speed
2 2 2 3 3 4 4 4 4 4 4 4 3 3 3 4 4 5 5 7 7 8 8 9 9 10 10 11 11 11 11 11 12 11 11 12 12 13 14 14 13 13 14
3 2 1 2 2 3 3 3 3 3 3 3 4 4 4 4 5 5 5 6 7 7 8 9 10 11 11 12 12 12 12 12 13 13 13 13 14 15 14 15 15 14 14
3 2 1 1 2 3 3 3 3 3 3 3 4 5 4 4 4 5 6 6 6 7 8 9 11 12 12 12 13 13 13 14 14 14 14 14 15 15 16 15 16 16 16
3 3 1 1 2 3 2 1 2 2 3 4 4 4 4 4 5 5 5 5 5 5 7 10 11 12 13 13 14 14 14 15 15 15 16 16 16 17 17 17 16 16 17
3 3 1 1 2 2 2 2 2 1 3 4 4 4 4 4 5 5 4 4 5 6 6 8 10 12 13 14 15 15 15 15 16 16 17 17 18 17 18 18 17 17 18
2 2 1 1 2 1 2 2 2 2 2 3 5 5 5 5 4 4 4 4 5 6 7 7 8 10 13 15 16 16 16 16 16 17 17 18 18 18 18 18 19 19 19
2 2 1 1 1 1 1 2 1 2 2 3 2 4 4 4 4 4 4 4 4 5 6 7 8 8 10 14 15 16 16 17 17 18 17 18 18 18 18 19 19 19 19
1 1 1 0 0 1 1 2 1 1 2 2 1 2 4 5 3 4 4 4 4 4 5 7 8 8 9 9 12 16 17 17 18 18 18 18 19 19 20 19 19 20 20
1 1 1 0 1 1 1 2 1 1 2 2 0 0 1 3 6 4 4 4 4 4 5 6 8 9 10 9 10 13 16 18 18 18 18 18 19 20 20 20 19 21 21
2 2 2 1 1 1 2 2 1 1 1 2 2 1 2 3 3 6 4 4 5 6 6 7 7 8 10 9 11 14 17 17 17 18 18 19 19 20 20 20 20 20 21
2 2 2 2 2 2 3 3 2 2 2 2 2 2 2 3 3 4 8 8 6 5 5 6 6 7 9 9 9 13 17 17 18 19 19 19 20 20 20 19 20 20 20
2 3 3 2 3 3 3 3 3 3 3 3 3 2 2 3 3 4 7 10 10 7 6 5 6 6 8 8 11 15 17 18 18 19 19 19 20 20 20 20 20 20 19
2 3 3 3 3 3 4 4 4 4 4 4 4 4 4 4 4 4 6 9 10 9 6 4 5 5 7 8 10 15 17 18 18 19 18 19 19 20 20 20 20 20 20
4 4 3 3 4 4 4 3 3 4 4 4 5 5 4 5 4 4 5 7 9 8 7 6 4 5 5 7 11 16 13 18 17 18 18 18 19 20 20 19 19 20 19
3 3 3 3 4 4 4 4 4 4 4 4 5 5 5 5 4 4 4 4 5 9 11 8 5 5 6 7 12 11 10 15 17 18 18 18 18 19 18 18 18 18 18
3 3 3 3 4 4 4 4 4 4 4 5 4 5 5 5 5 4 4 5 5 7 10 9 8 9 9 10 14 11 10 16 17 18 18 18 18 17 17 17 17 17 16
3 3 4 4 4 4 4 4 5 5 5 5 5 5 6 6 5 4 4 4 5 6 10 11 9 9 9 10 10 8 9 9 10 16 18 18 17 16 16 16 16 15 15
3 4 3 4 4 5 4 5 6 5 6 6 6 6 7 6 6 5 5 5 6 6 8 12 11 9 9 9 9 9 9 9 8 14 17 17 15 14 14 14 14 14 14
3 3 3 4 4 5 5 5 5 6 6 6 6 6 7 6 7 6 6 6 6 7 7 9 11 9 8 8 8 9 9 7 9 11 13 14 13 13 13 12 12 13 13
2 3 3 4 4 4 4 5 5 5 6 6 6 6 7 7 8 8 7 7 7 7 7 8 9 9 9 8 7 8 9 6 7 8 9 10 11 12 12 11 12 11 10
2 3 3 4 4 4 4 4 4 5 5 6 6 6 7 9 10 9 8 7 7 6 7 8 9 9 9 8 8 6 8 8 7 5 6 6 6 6 7 9 9 9 8
2 2 2 3 4 4 7 7 5 4 5 5 7 7 7 8 10 12 13 12 10 8 8 8 8 9 10 9 8 8 8 8 7 3 4 6 4 5 5 5 7 7 5
1 2 3 3 4 5 8 8 7 5 4 5 6 6 7 8 10 7 10 12 11 13 12 10 10 10 10 9 9 9 8 8 8 6 5 6 5 5 5 6 7 5 3
2 2 3 4 4 6 8 8 8 5 4 5 5 6 7 8 8 8 7 7 8 8 10 8 7 9 9 8 8 7 8 7 6 5 4 5 5 4 5 5 6 4 4
2 2 3 3 4 6 8 8 8 4 4 5 5 6 7 7 11 12 8 8 9 8 10 11 12 11 12 12 8 5 5 5 6 4 2 2 4 4 4 3 4 4 5
2 2 3 3 3 5 7 8 7 3 4 5 6 6 8 9 11 12 8 7 9 8 8 8 8 8 7 7 8 5 4 4 4 4 2 2 3 3 3 2 2 3 4
Wind_Direction
97 76 52 40 27 22 21 11 5 1 355 347 337 324 308 302 300 296 298 292 289 288 291 294 289 285 286 285 284 283 278 274 272 271 270 266 267 268 263 259 260 258 257
108 95 63 37 17 12 14 16 3 354 338 334 325 318 301 295 292 292 292 294 290 289 291 294 294 290 289 289 287 286 280 277 274 274 273 270 267 266 267 265 261 260 261
107 101 84 26 355 3 16 21 7 3 343 334 320 311 306 303 296 293 289 288 287 286 290 295 297 296 294 291 289 288 284 278 275 274 273 272 271 269 266 267 266 262 261
105 95 81 352 354 16 23 2 349 347 336 327 316 308 304 306 299 289 287 287 291 290 290 294 295 295 296 295 291 289 287 282 277 276 274 272 271 269 268 264 265 266 263
99 99 92 15 19 28 3 339 350 337 325 323 313 308 309 306 297 293 285 286 288 288 293 296 299 299 298 297 296 292 288 286 281 280 277 275 272 269 266 266 264 267 265
101 94 84 39 42 25 353 345 331 328 308 311 313 314 308 302 300 290 283 285 287 292 301 300 299 301 300 300 298 295 289 287 286 285 281 278 275 271 268 266 264 264 266
122 104 67 29 36 10 319 319 311 326 328 333 340 326 316 306 303 286 285 280 280 287 298 299 297 294 294 297 297 297 292 289 287 287 283 279 276 274 273 272 267 264 264
153 130 126 275 312 336 344 329 338 332 326 0 5 339 332 326 314 295 289 278 279 286 289 296 292 288 292 293 293 295 292 292 290 287 286 285 280 275 272 271 271 265 264
188 184 172 188 276 235 268 281 272 239 291 310 346 150 320 298 315 300 293 285 283 285 285 287 285 285 287 288 288 292 294 293 291 289 288 286 283 281 276 272 272 270 265
220 218 214 213 242 248 252 262 259 237 235 281 302 250 232 251 292 307 304 294 288 285 281 285 285 282 280 280 285 291 291 292 291 290 289 289 288 285 282 277 274 275 269
240 237 228 218 239 250 252 255 260 255 237 246 261 276 288 284 259 276 299 308 301 279 275 271 272 273 275 275 280 286 292 289 288 288 287 288 288 288 284 283 281 280 274
257 254 250 240 244 251 253 250 246 249 248 248 252 249 253 265 275 271 287 300 303 299 288 272 268 271 272 276 282 291 293 291 287 286 286 286 287 287 286 283 283 280 281
254 255 261 254 252 252 255 254 249 255 249 247 247 252 251 254 262 268 282 295 300 301 292 276 264 270 280 282 283 290 291 291 289 288 288 285 285 286 285 283 282 280 280
238 244 251 256 254 254 260 260 255 255 253 250 261 260 261 261 258 262 270 292 303 301 297 288 286 268 283 287 287 292 289 290 292 292 291 287 285 284 283 281 281 279 280
240 239 247 256 263 263 262 260 260 260 257 255 261 264 265 266 261 261 263 266 279 297 301 297 302 299 302 295 295 295 289 291 295 294 293 290 287 284 281 280 281 279 280
237 242 253 260 266 268 266 260 265 261 258 263 264 266 270 272 269 264 263 267 262 271 286 293 298 304 307 308 303 302 296 297 299 295 293 290 288 285 282 280 279 277 279
236 244 252 259 263 266 265 261 266 267 265 270 273 272 274 273 274 273 268 268 268 267 280 292 294 300 301 303 306 305 301 294 293 296 295 292 289 287 284 283 280 278 278
238 246 252 260 266 268 263 260 266 270 268 271 274 277 279 284 279 277 272 270 272 268 273 288 296 300 299 300 300 303 303 300 294 295 297 295 292 292 289 286 282 280 279
245 258 257 263 268 269 262 259 259 266 267 267 270 273 279 281 283 282 276 275 276 279 274 282 292 297 299 302 305 304 301 299 298 297 299 300 300 300 297 291 287 281 278
244 262 268 270 273 271 267 264 264 270 274 274 271 270 273 274 277 280 280 277 281 284 286 288 292 297 299 302 302 305 310 311 308 306 306 306 306 305 304 299 293 288 281
265 271 279 285 285 278 275 280 275 277 281 286 286 282 282 286 289 289 289 287 286 287 291 291 293 298 299 307 306 304 305 310 307 299 307 307 309 310 311 304 299 293 286
279 289 289 288 290 294 301 301 301 285 282 285 292 295 293 289 295 297 295 292 289 287 288 288 292 295 297 299 300 301 302 307 305 312 308 306 310 309 312 307 308 306 301
283 293 291 292 291 296 306 306 304 302 290 287 289 295 301 303 304 293 294 298 296 292 288 284 285 287 292 296 297 297 297 297 291 299 306 299 307 304 312 315 319 327 351
290 292 298 299 299 302 311 312 316 307 295 292 290 290 295 300 302 304 302 303 297 295 293 290 282 287 294 295 289 286 289 293 291 297 303 292 306 304 310 318 323 341 0
318 314 312 307 305 306 313 317 320 307 304 301 300 302 302 298 303 311 312 306 304 303 306 303 300 300 301 302 304 308 307 307 302 302 320 295 300 308 313 319 322 344 359
312 320 325 323 313 308 316 321 323 311 308 310 310 306 307 309 310 315 312 307 307 308 311 315 315 316 314 315 320 314 299 294 295 295 302 307 298 318 330 335 356 354 355
Height
1507 1507 1507 1506 1506 1506 1505 1505 1504 1504 1503 1503 1502 1501 1501 1500 1500 1500 1499 1499 1498 1498 1497 1497 1496 1496 1495 1495 1494 1493 1493 1492 1492 1492 1491 1491 1490 1490 1490 1489 1490 1490 1490
1506 1506 1505 1505 1504 1504 1503 1503 1502 1501 1501 1500 1500 1499 1498 1498 1497 1497 1496 1496 1495 1494 1494 1493 1492 1492 1491 1490 1490 1489 1488 1488 1487 1487 1487 1486 1486 1485 1484 1484 1484 1484 1484
1504 1504 1503 1503 1502 1502 1501 1501 1500 1499 1498 1498 1497 1496 1495 1495 1494 1493 1493 1492 1491 1491 1490 1489 1488 1488 1487 1486 1485 1485 1484 1483 1482 1482 1482 1481 1481 1480 1479 1479 1479 1479 1479
1503 1502 1502 1501 1501 1500 1499 1498 1497 1496 1496 1495 1494 1493 1492 1491 1490 1490 1489 1488 1487 1487 1486 1485 1484 1483 1482 1481 1481 1480 1479 1478 1477 1477 1476 1475 1475 1474 1474 1473 1473 1473 1473
1501 1500 1500 1499 1499 1498 1497 1496 1495 1494 1493 1492 1491 1490 1489 1487 1487 1486 1485 1484 1483 1482 1481 1481 1480 1479 1478 1477 1475 1474 1473 1473 1472 1471 1471 1470 1469 1468 1468 1467 1467 1467 1467
1499 1499 1498 1497 1497 1496 1495 1494 1493 1492 1490 1489 1488 1486 1485 1484 1483 1482 1481 1480 1479 1478 1477 1476 1475 1474 1473 1471 1470 1469 1468 1467 1466 1465 1464 1463 1463 1463 1462 1461 1461 1460 1460
1497 1497 1496 1495 1495 1494 1493 1492 1490 1489 1488 1486 1484 1482 1481 1480 1479 1478 1477 1476 1475 1474 1473 1472 1470 1469 1467 1466 1465 1463 1462 1461 1460 1459 1458 1457 1457 1456 1456 1455 1454 1453 1454
1495 1494 1494 1493 1492 1491 1490 1489 1488 1487 1485 1484 1483 1480 1477 1476 1474 1474 1473 1471 1470 1469 1468 1467 1466 1464 1462 1460 1459 1457 1456 1455 1454 1453 1452 1451 1450 1449 1449 1448 1448 1447 1447
1492 1492 1492 1491 1490 1489 1488 1487 1486 1485 1483 1482 1482 1481 1478 1474 1470 1468 1468 1467 1466 1464 1463 1462 1460 1459 1457 1455 1453 1452 1450 1449 1447 1446 1445 1445 1444 1443 1442 1441 1441 1440 1439
1490 1490 1489 1488 1487 1487 1486 1485 1484 1482 1481 1480 1479 1479 1478 1475 1472 1465 1462 1462 1461 1459 1458 1457 1455 1453 1451 1450 1448 1446 1444 1443 1441 1440 1439 1438 1437 1436 1435 1434 1433 1433 1432
1487 1487 1486 1486 1485 1484 1483 1482 1481 1480 1479 1477 1476 1475 1474 1473 1470 1467 1459 1456 1455 1454 1453 1451 1449 1448 1446 1444 1442 1440 1438 1437 1435 1434 1432 1431 1430 1429 1428 1427 1426 1425 1425
1484 1484 1483 1483 1482 1481 1480 1479 1478 1477 1476 1474 1473 1472 1471 1469 1467 1464 1459 1453 1449 1447 1447 1445 1444 1442 1440 1438 1436 1434 1432 1431 1428 1427 1425 1424 1423 1422 1421 1419 1418 1418 1417
1481 1480 1480 1479 1478 1478 1477 1476 1474 1473 1472 1471 1470 1468 1467 1465 1464 1461 1457 1451 1446 1442 1440 1439 1438 1436 1435 1432 1430 1428 1426 1424 1422 1420 1418 1416 1415 1414 1413 1411 1411 1410 1410
1477 1477 1476 1476 1475 1474 1473 1472 1471 1470 1468 1467 1466 1464 1463 1461 1460 1457 1455 1451 1444 1437 1435 1433 1432 1431 1429 1427 1424 1422 1419 1417 1415 1413 1411 1409 1407 1406 1405 1404 1403 1403 1402
1474 1474 1473 1472 1471 1471 1470 1469 1467 1465 1464 1463 1461 1460 1458 1456 1455 1453 1451 1449 1446 1438 1429 1427 1427 1425 1424 1421 1419 1416 1413 1411 1409 1406 1404 1402 1400 1399 1397 1396 1395 1395 1395
1470 1470 1469 1468 1468 1467 1466 1465 1463 1461 1460 1458 1457 1455 1453 1451 1450 1448 1446 1444 1442 1439 1430 1424 1422 1420 1418 1416 1413 1410 1408 1405 1402 1400 1398 1395 1393 1391 1390 1389 1388 1387 1387
1466 1466 1465 1464 1463 1462 1461 1460 1459 1457 1455 1453 1452 1450 1448 1446 1444 1442 1441 1439 1437 1435 1428 1421 1419 1416 1413 1410 1406 1404 1401 1399 1396 1393 1391 1389 1387 1385 1383 1381 1380 1380 1379
1463 1462 1461 1460 1459 1458 1457 1455 1454 1452 1451 1449 1447 1445 1443 1441 1439 1437 1435 1433 1431 1429 1425 1418 1413 1411 1408 1405 1402 1398 1396 1393 1391 1388 1385 1383 1380 1378 1376 1375 1374 1373 1372
1459 1458 1457 1456 1455 1453 1452 1451 1450 1448 1446 1444 1442 1440 1439 1437 1434 1432 1430 1428 1425 1423 1420 1416 1410 1407 1403 1400 1397 1393 1390 1387 1385 1382 1380 1377 1375 1372 1370 1369 1367 1366 1366
1455 1454 1453 1452 1451 1449 1448 1446 1445 1443 1442 1440 1438 1436 1434 1432 1430 1427 1425 1423 1420 1418 1415 1411 1406 1402 1399 1396 1393 1389 1384 1382 1379 1377 1375 1372 1370 1367 1365 1363 1362 1361 1360
1451 1451 1449 1448 1447 1445 1444 1442 1440 1439 1437 1435 1433 1432 1430 1428 1425 1423 1421 1418 1416 1413 1410 1407 1402 1398 1395 1392 1389 1386 1382 1378 1375 1373 1370 1367 1365 1362 1360 1358 1357 1356 1356
1448 1447 1445 1444 1442 1441 1440 1439 1437 1434 1432 1430 1428 1427 1425 1423 1421 1418 1416 1414 1412 1409 1405 1403 1399 1395 1391 1389 1386 1382 1379 1375 1370 1369 1366 1363 1361 1358 1356 1355 1353 1352 1351
1444 1443 1442 1440 1439 1437 1436 1434 1433 1430 1428 1426 1424 1422 1420 1418 1416 1413 1411 1409 1407 1404 1402 1400 1395 1391 1388 1385 1382 1378 1375 1372 1368 1366 1363 1359 1358 1355 1353 1352 1350 1349 1348
1440 1439 1438 1436 1435 1433 1432 1430 1428 1426 1424 1422 1420 1418 1415 1413 1411 1409 1406 1403 1401 1399 1397 1394 1391 1387 1384 1381 1378 1376 1372 1368 1365 1363 1361 1357 1354 1352 1351 1350 1349 1347 1347
1437 1436 1434 1433 1431 1429 1428 1426 1424 1422 1420 1418 1416 1414 1411 1409 1407 1405 1402 1399 1395 1393 1391 1389 1386 1383 1380 1377 1374 1372 1368 1365 1361 1359 1358 1355 1352 1350 1349 1347 1347 1347 1346
1434 1433 1431 1429 1428 1426 1424 1423 1421 1418 1416 1414 1412 1410 1408 1405 1403 1401 1398 1395 1391 1388 1386 1383 1380 1377 1375 1373 1371 1369 1366 1363 1360 1357 1355 1354 1351 1349 1347 1346 1346 1346 1345